User: anonymous   Login
Location: Nairn
(57.5833°N, 3.8667°W)
Time: 02:02:13
(UTC+00:00)
Language:

Landsat 5 - Orbit

View from above orbital plane
View from above orbital plane
View from above satellite
View from above satellite

Ground track
Ground track

The orbit data is extracted from the following two-line orbital elements,

1 14780U 84021A   20302.48372956 +.00000380 +00000-0 +40631-4 0  9995
2 14780 098.1869 104.6207 0091218 087.3731 273.7925 14.92130735483615
Epoch (UTC): 28 October 2020 11:36:34
Eccentricity: 0.0091218
inclination: 98.1869°
perigee height: 528 km
apogee height: 655 km
right ascension of ascending node: 104.6207°
argument of perigee: 87.3731°
revolutions per day: 14.92130735
mean anomaly at epoch: 273.7925°
orbit number at epoch: 48361

The dashed part of the orbit path shows where the satellite is in the earth's shadow,  

DLR